Location: Gniazdowice
(50.2124°N, 20.2673°E)
Time: 01:56:28
(UTC+00:00)

Cosmos 2242 Rocket - Pass Details

Date: 23 May 2024
Orbit: 617 x 647 km, 82.5° (Epoch: 18 June)

Event Time Altitude Azimuth Distance (km) Brightness Sun altitude
Exits shadow 00:53:31 16° 183° (S) 1,659 5.2 -12.9°
Maximum altitude 00:57:05 79° 99° (E) 648 3.7 -12.6°
Drops below altitude 10° 01:01:36 10° 12° (NNE) 2,033 7.4 -12.2°
Sets 01:03:52 0° 12° (NNE) 2,951 8.4 -12.0°
